Location: Baller�as
(41.9020°N, 0.1554°W)
Time: 11:07:23
(UTC+00:00)

Cosmos 1814 Rocket - Pass Details

Date: 10 August 2020
Orbit: 744 x 788 km, 74.1° (Epoch: 21 September)

Event Time Altitude Azimuth Distance (km) Brightness Sun altitude
Rises 22:14:35 0° 343° (NNW) 3,221 8.4 -27.4°
Reaches altitude 10° 22:17:00 10° 348° (NNW) 2,298 7.4 -27.6°
Enters shadow 22:21:38 56° 41° (NE) 910 4.4 -28.0°
